GW6957 Weather Reports


Display with metric or nautical units.
time (UTC)temp
F
wind
direction
speed
MPH
gust
MPH
rain 1hr
in
rain 24hr
in
rain mn
in
humidity
%
barometer
mb
20260504172917 73 194 3.0 4.0 0.00 0.00 0.15 50 1011.9
20260504172418 71 115 7.0 10.0 0.00 0.00 0.15 52 1011.9
20260504171917 72 303 2.0 5.0 0.00 0.00 0.15 52 1011.9
20260504171418 73 175 2.0 3.0 0.00 0.00 0.15 51 1011.9
20260504170918 72 150 2.0 3.0 0.00 0.00 0.15 54 1011.9
20260504170417 72 127 5.0 5.0 0.00 0.00 0.15 59 1011.9
20260504160424 58 217 0.0 0.0 0.01 0.00 0.15 93 1013.9
20260504150918 60 214 1.0 1.0 0.00 0.00 0.15 84 1014.2
20260504150418 60 222 1.0 1.0 0.00 0.00 0.15 80 1014.2
20260504140919 58 147 3.0 3.0 0.00 0.00 0.15 80 1014.9
20260504140420 58 265 1.0 4.0 0.00 0.00 0.15 84 1014.9
20260504130420 51 77 2.0 2.0 0.01 0.00 0.15 99 1015.2
20260504110418 45 257 0.0 0.0 0.00 0.00 0.00 94 1014.2
20260504100418 44 232 0.0 0.0 0.00 0.00 0.00 96 1013.9
20260504081918 46 205 0.0 1.0 0.00 0.00 0.00 91 1014.2
20260504081417 46 222 0.0 0.0 0.00 0.00 0.00 90 1014.2
20260504080918 46 204 0.0 0.0 0.00 0.00 0.00 90 1014.6
20260504080418 46 177 1.0 1.0 0.00 0.00 0.00 91 1014.6
20260504050417 44 213 0.0 1.0 0.00 0.00 0.00 85 1016.3
20260504045917 44 239 0.0 0.0 0.00 0.00 0.00 85 1016.3
20260504045418 44 211 0.0 0.0 0.00 0.00 0.00 86 1016.3
20260504044917 44 212 0.0 0.0 0.00 0.00 0.00 86 1016.3
20260504044417 44 215 0.0 0.0 0.00 0.00 0.00 86 1016.3
20260504043917 43 218 0.0 0.0 0.00 0.00 0.00 86 1016.3
20260504043418 43 225 0.0 0.0 0.00 0.00 0.00 86 1016.3
20260504042917 43 206 0.0 0.0 0.00 0.00 0.00 86 1016.3
20260504042418 43 216 0.0 0.0 0.00 0.00 0.00 87 1016.6
20260504041918 43 214 0.0 0.0 0.00 0.00 0.00 85 1016.6
20260504041417 44 204 0.0 0.0 0.00 0.00 0.00 86 1016.6
20260504040918 44 207 0.0 0.0 0.00 0.00 0.00 85 1016.3
20260504040418 44 198 0.0 0.0 0.00 0.00 0.00 84 1016.3
20260504035918 44 202 0.0 0.0 0.00 0.00 0.00 86 1016.6
20260504035418 44 199 0.0 0.0 0.00 0.00 0.00 84 1016.6
20260504034917 43 201 0.0 0.0 0.00 0.00 0.00 85 1016.6
20260504034418 42 220 0.0 0.0 0.00 0.00 0.00 86 1016.6
20260504033917 42 223 0.0 0.0 0.00 0.00 0.00 85 1016.6
20260504033418 42 215 0.0 0.0 0.00 0.00 0.00 86 1016.3
20260504032917 42 217 0.0 0.0 0.00 0.00 0.00 85 1016.3
20260504032417 42 215 0.0 0.0 0.00 0.00 0.00 86 1016.3
20260504031919 42 220 0.0 0.0 0.00 0.00 0.00 85 1016.3
20260504031418 43 204 0.0 0.0 0.00 0.00 0.00 85 1016.3
20260504030917 43 213 0.0 0.0 0.00 0.00 0.00 84 1015.9
20260504030417 43 209 0.0 0.0 0.00 0.00 0.00 83 1015.9
20260504025917 43 221 0.0 0.0 0.00 0.00 0.00 83 1015.9
20260504025417 43 211 0.0 0.0 0.00 0.00 0.00 83 1015.9
20260504024918 44 206 0.0 0.0 0.00 0.00 0.00 82 1015.9
20260504024417 44 210 0.0 0.0 0.00 0.00 0.00 82 1015.9
20260504023918 44 211 0.0 0.0 0.00 0.00 0.00 81 1015.9
20260504023418 44 228 0.0 0.0 0.00 0.00 0.00 79 1015.9
20260504022917 44 194 0.0 0.0 0.00 0.00 0.00 80 1015.9
20260504022417 44 230 0.0 0.0 0.00 0.00 0.00 78 1015.2
20260504021919 45 205 0.0 0.0 0.00 0.00 0.00 76 1015.2
20260504021418 45 222 0.0 0.0 0.00 0.00 0.00 77 1015.2
20260504020918 45 215 0.0 0.0 0.00 0.00 0.00 77 1015.2
20260504020419 46 213 0.0 0.0 0.00 0.00 0.00 76 1015.2
20260504015917 46 213 0.0 0.0 0.00 0.00 0.00 75 1014.9
20260504015417 46 215 0.0 0.0 0.00 0.00 0.00 74 1014.9
20260504014917 46 206 0.0 0.0 0.00 0.00 0.00 74 1014.9
20260504014419 46 227 0.0 0.0 0.00 0.00 0.00 73 1014.9
20260504013917 47 221 0.0 0.0 0.00 0.00 0.00 71 1014.9
20260504013417 47 212 0.0 0.0 0.00 0.00 0.00 71 1014.9
20260504012918 47 212 0.0 0.0 0.00 0.00 0.00 69 1014.9
20260504012418 48 207 0.0 0.0 0.00 0.00 0.00 70 1014.9
20260504011917 48 209 0.0 0.0 0.00 0.00 0.00 70 1014.9
20260504011417 49 208 0.0 0.0 0.00 0.00 0.00 68 1014.9
20260504010917 49 215 0.0 0.0 0.00 0.00 0.00 67 1014.9
20260504010417 50 205 0.0 0.0 0.00 0.00 0.00 65 1014.9
20260504005917 50 212 0.0 0.0 0.00 0.00 0.00 64 1014.9
20260504005418 50 210 0.0 0.0 0.00 0.00 0.00 62 1014.9
20260504004917 51 211 0.0 0.0 0.00 0.00 0.00 63 1014.9
20260504004418 51 214 0.0 0.0 0.00 0.00 0.00 63 1015.2
20260504003917 51 221 0.0 0.0 0.00 0.00 0.00 60 1015.2
20260504003418 51 217 1.0 1.0 0.00 0.00 0.00 62 1015.2
20260504002920 51 218 0.0 0.0 0.00 0.00 0.00 59 1015.2
20260504002418 51 204 0.0 0.0 0.00 0.00 0.00 59 1015.2
20260504001917 52 196 0.0 0.0 0.00 0.00 0.00 58 1015.2
20260504001417 52 229 0.0 0.0 0.00 0.00 0.00 57 1015.2
20260504000917 52 207 0.0 0.0 0.00 0.00 0.00 59 1015.2
20260504000417 53 208 0.0 0.0 0.00 0.00 0.00 57 1015.2
20260503235917 53 214 0.0 0.0 0.00 0.00 0.00 56 1015.2
20260503235417 54 246 1.0 2.0 0.00 0.00 0.00 53 1015.2
20260503234918 54 255 1.0 1.0 0.00 0.00 0.00 51 1014.9
20260503234417 56 309 1.0 1.0 0.00 0.00 0.00 51 1014.9
20260503233918 57 252 0.0 1.0 0.00 0.00 0.00 48 1014.9
20260503233417 60 254 0.0 0.0 0.00 0.00 0.00 43 1015.2
20260503232917 61 101 2.0 2.0 0.00 0.00 0.00 33 1015.2
20260503232417 61 112 6.0 9.0 0.00 0.00 0.00 32 1015.2
20260503231919 62 179 3.0 6.0 0.00 0.00 0.00 33 1015.2
20260503231418 61 174 2.0 2.0 0.00 0.00 0.00 36 1015.2
20260503230917 61 120 3.0 4.0 0.00 0.00 0.00 33 1015.2
20260503230417 61 247 0.0 0.0 0.00 0.00 0.00 40 1015.2
20260503225917 62 196 1.0 1.0 0.00 0.00 0.00 34 1015.2
20260503225418 62 192 1.0 1.0 0.00 0.00 0.00 32 1015.2
20260503224918 62 70 5.0 6.0 0.00 0.00 0.00 31 1015.2
20260503224417 62 17 6.0 6.0 0.00 0.00 0.00 31 1015.2
20260503223918 63 131 5.0 6.0 0.00 0.00 0.00 31 1015.2
20260503223418 63 197 0.0 2.0 0.00 0.00 0.00 31 1015.9
20260503222917 63 133 2.0 2.0 0.00 0.00 0.00 31 1015.9
20260503222417 63 164 5.0 7.0 0.00 0.00 0.00 31 1015.9
20260503221917 63 123 3.0 4.0 0.00 0.00 0.00 31 1015.9
20260503221417 64 84 3.0 3.0 0.00 0.00 0.00 30 1015.9
20260503220917 63 136 2.0 3.0 0.00 0.00 0.00 29 1015.9
20260503220417 64 112 6.0 10.0 0.00 0.00 0.00 29 1015.9
20260503215917 64 105 4.0 8.0 0.00 0.00 0.00 31 1016.3
20260503215417 65 90 4.0 4.0 0.00 0.00 0.00 29 1016.3
20260503214917 64 121 5.0 6.0 0.00 0.00 0.00 29 1016.3
20260503214417 65 139 2.0 6.0 0.00 0.00 0.00 28 1016.3
20260503213917 67 272 2.0 2.0 0.00 0.00 0.00 27 1016.3
20260503213417 67 108 7.0 7.0 0.00 0.00 0.00 27 1016.6
20260503212918 66 124 3.0 4.0 0.00 0.00 0.00 27 1016.6
20260503212417 66 155 5.0 7.0 0.00 0.00 0.00 27 1016.6
20260503211917 66 178 2.0 3.0 0.00 0.00 0.00 27 1016.6
20260503211417 66 116 6.0 8.0 0.00 0.00 0.00 28 1016.6
20260503210918 67 90 5.0 8.0 0.00 0.00 0.00 26 1016.6
20260503210417 68 177 2.0 4.0 0.00 0.00 0.00 29 1016.6
20260503205918 66 95 6.0 8.0 0.00 0.00 0.00 29 1016.6
20260503205417 66 106 7.0 7.0 0.00 0.00 0.00 29 1016.6
20260503204918 66 76 5.0 7.0 0.00 0.00 0.00 27 1016.6
20260503204417 68 49 2.0 2.0 0.00 0.00 0.00 25 1016.6
20260503203918 68 132 8.0 9.0 0.00 0.00 0.00 27 1016.6
20260503203417 67 258 2.0 2.0 0.00 0.00 0.00 27 1016.9
20260503202918 67 137 1.0 2.0 0.00 0.00 0.00 26 1016.9
20260503202417 67 152 1.0 5.0 0.00 0.00 0.00 28 1016.9
20260503201918 67 127 5.0 5.0 0.00 0.00 0.00 26 1016.9
20260503201417 69 213 2.0 3.0 0.00 0.00 0.00 27 1016.9
20260503200917 71 191 2.0 2.0 0.00 0.00 0.00 26 1017.3
20260503200417 67 175 3.0 4.0 0.00 0.00 0.00 26 1017.3
20260503195917 68 230 1.0 1.0 0.00 0.00 0.00 28 1017.3
20260503195417 65 93 6.0 8.0 0.00 0.00 0.00 27 1017.3
20260503194918 66 274 3.0 9.0 0.00 0.00 0.00 28 1017.6
20260503194417 67 150 7.0 8.0 0.00 0.00 0.00 28 1017.6
20260503193917 68 142 0.0 1.0 0.00 0.00 0.00 29 1017.6
20260503193417 68 32 2.0 2.0 0.00 0.00 0.00 25 1017.9
20260503192917 66 157 2.0 5.0 0.00 0.00 0.00 26 1017.9
20260503192417 64 132 8.0 10.0 0.00 0.00 0.00 27 1017.9
20260503191918 66 239 2.0 4.0 0.00 0.00 0.00 28 1017.9
20260503191418 64 151 3.0 4.0 0.00 0.00 0.00 27 1017.9
20260503190918 68 158 0.0 1.0 0.00 0.00 0.00 26 1017.9
20260503190417 64 103 5.0 7.0 0.00 0.00 0.00 28 1017.9
20260503185918 64 122 3.0 3.0 0.00 0.00 0.00 30 1018.3
20260503185417 67 93 5.0 6.0 0.00 0.00 0.00 29 1018.3
20260503184918 64 134 2.0 4.0 0.00 0.00 0.00 28 1018.3
20260503184417 64 343 6.0 6.0 0.00 0.00 0.00 28 1018.3
20260503183918 70 235 1.0 1.0 0.00 0.00 0.00 24 1018.3
20260503183417 69 225 0.0 2.0 0.00 0.00 0.00 29 1019.0
20260503182918 67 34 2.0 3.0 0.00 0.00 0.00 29 1019.0
20260503182417 65 221 2.0 2.0 0.00 0.00 0.00 29 1019.3
20260503181917 63 99 4.0 5.0 0.00 0.00 0.00 29 1019.3
20260503181417 67 186 2.0 2.0 0.00 0.00 0.00 32 1019.3
20260503180917 63 139 3.0 3.0 0.00 0.00 0.00 31 1019.3
20260503180417 67 138 3.0 4.0 0.00 0.00 0.00 28 1019.3
20260503175921 65 198 5.0 6.0 0.00 0.00 0.00 29 1019.6
20260503175417 63 140 8.0 8.0 0.00 0.00 0.00 29 1019.6
20260503174917 62 124 6.0 7.0 0.00 0.00 0.00 32 1019.6
20260503174417 66 186 1.0 1.0 0.00 0.00 0.00 28 1019.6
20260503173918 62 175 2.0 4.0 0.00 0.00 0.00 29 1019.6
20260503173417 61 127 6.0 11.0 0.00 0.00 0.00 27 1019.6